Temperature
17 17 18 18 15 13 15 16 17 18 18 19 19 18 17 16 17 17 16 16 16 16 16 15 15 15 15 15 15 15 15 15 15 15 15 15 15 15 15 15 14 14 14 14 14 14 14 14 14
17 17 18 17 13 14 15 16 17 18 19 19 19 17 16 15 16 16 15 16 16 16 16 15 15 15 15 15 15 15 15 15 15 15 15 15 15 15 15 15 14 14 14 14 14 14 14 14 14
17 17 17 13 13 14 16 17 17 18 19 19 17 17 16 15 15 15 16 15 16 16 16 15 15 15 15 15 15 15 15 15 15 15 14 14 14 14 14 14 14 14 14 14 14 14 14 14 14
17 17 16 12 14 14 16 17 17 18 19 18 17 15 15 15 15 15 15 15 15 15 15 15 15 15 15 15 15 15 15 14 14 14 14 14 14 14 14 14 14 14 14 14 14 14 14 14 14
16 16 13 12 14 15 15 17 18 17 17 17 17 15 14 15 15 15 15 15 15 15 15 15 15 15 15 15 15 14 14 14 14 14 14 14 14 14 14 14 14 14 14 14 14 14 14 14 14
16 13 12 12 14 15 15 17 17 16 16 17 16 14 14 15 15 15 15 15 15 15 15 15 14 14 14 14 14 14 14 14 14 14 14 14 14 14 13 13 13 13 13 13 13 13 13 13 13
14 11 12 13 14 14 15 17 16 15 15 16 16 14 14 14 14 14 14 15 14 14 14 14 14 14 14 14 14 14 14 14 14 14 14 14 13 13 13 13 13 13 13 13 13 13 13 13 13
15 11 13 13 14 14 15 16 16 16 15 16 16 14 13 14 14 14 14 14 14 14 14 14 14 14 14 14 14 14 14 14 14 14 13 13 13 13 13 13 13 13 13 13 13 13 13 13 12
15 11 12 13 14 14 14 15 15 16 15 15 15 15 15 14 14 14 14 14 14 14 14 13 13 13 14 13 13 13 13 13 13 13 13 13 13 13 13 13 13 13 13 13 13 13 12 12 12
13 10 12 13 13 13 13 14 14 15 14 13 14 14 14 14 14 14 14 14 13 13 13 13 13 13 13 13 13 13 13 13 13 13 13 13 13 13 13 12 12 13 12 12 12 12 12 12 12
12 11 12 13 14 14 13 13 14 13 12 13 13 14 13 13 13 13 14 13 13 13 13 13 13 13 13 13 13 13 13 13 13 13 13 13 12 12 12 12 12 12 12 12 12 12 12 12 11
11 12 12 13 13 13 13 13 12 13 13 14 14 13 13 13 13 13 13 13 13 13 13 13 13 13 13 13 13 13 13 13 13 12 12 12 12 12 12 12 12 12 12 12 12 12 11 11 11
11 11 12 13 13 13 12 12 12 12 13 13 13 13 13 13 13 13 13 13 13 13 13 13 13 13 12 12 12 12 12 12 12 12 12 12 12 12 12 12 12 12 11 11 11 11 11 11 11
11 11 11 12 12 12 11 11 11 11 12 12 12 12 12 12 12 12 12 12 12 12 12 12 12 12 12 12 12 12 12 12 12 12 12 12 12 12 12 12 11 11 11 11 11 11 11 11 10
11 10 10 11 11 11 11 10 10 11 12 12 12 12 12 12 12 12 12 12 12 12 12 12 12 12 12 12 12 12 12 12 11 12 11 11 11 11 11 11 11 11 11 11 11 10 10 10 10
10 10 9 10 11 11 11 10 10 11 11 11 11 11 11 11 11 12 12 12 12 12 12 12 11 11 11 11 11 11 11 11 11 11 11 11 11 11 11 11 11 11 10 10 10 10 10 10 10
9 8 9 10 10 10 10 9 9 11 10 10 10 10 11 11 11 11 11 11 11 11 11 11 11 11 11 11 11 11 11 11 11 11 11 11 11 11 11 11 10 10 10 10 10 10 10 9 9
8 8 9 9 9 9 9 8 8 10 10 9 9 10 10 10 10 11 11 11 11 11 11 11 11 11 10 10 10 10 10 10 10 10 10 10 10 10 10 10 10 10 10 10 9 9 9 9 9
9 9 8 9 9 9 8 8 8 9 9 8 9 9 9 9 10 10 10 10 11 10 10 10 10 10 10 10 10 10 10 10 10 10 10 10 10 10 9 9 9 9 9 9 9 9 9 8 8
8 8 8 8 9 8 8 8 8 8 8 8 8 8 9 9 9 10 10 10 10 10 10 10 10 10 10 10 10 9 9 9 9 9 9 9 9 9 9 9 9 9 9 8 8 8 8 8 7
8 7 7 8 8 8 7 7 7 7 8 8 9 9 8 8 8 9 9 9 9 9 9 9 9 9 9 9 9 9 9 9 9 9 9 9 8 8 8 8 8 8 8 8 8 8 7 7 7
7 7 8 7 6 6 7 6 6 6 6 7 7 8 8 8 8 8 8 8 8 9 9 9 9 9 9 9 8 8 9 9 8 8 8 8 8 8 8 8 7 7 7 7 7 7 7 6 6
7 7 7 7 6 5 5 5 6 6 6 6 6 7 8 8 8 8 8 8 8 8 8 8 8 8 8 8 8 8 8 8 8 7 7 7 7 7 7 7 7 7 7 6 6 6 6 6 6
7 6 5 4 4 4 5 5 5 5 6 6 6 7 7 7 7 7 7 7 7 7 7 7 7 7 7 7 7 7 7 7 7 7 7 7 7 7 6 6 6 6 6 6 6 6 5 5 5
6 4 4 4 3 4 4 5 5 6 6 6 6 6 6 6 6 6 6 6 6 7 7 7 7 7 7 7 7 7 7 6 6 6 6 6 6 6 6 6 6 6 6 5 5 5 5 5 5
5 5 4 4 4 4 4 4 5 5 6 6 6 6 6 6 6 6 6 6 6 6 6 6 6 6 6 6 6 6 6 6 6 6 5 6 6 5 5 5 5 5 5 5 5 4 4 4 4
5 4 4 3 3 3 4 4 5 5 5 5 5 5 5 5 5 5 5 5 5 5 5 6 5 5 5 5 5 5 5 5 5 5 5 5 5 5 5 5 4 4 4 4 4 4 4 4 4
5 4 3 3 3 4 4 4 4 5 4 4 4 4 5 5 5 5 5 5 5 5 5 5 5 5 5 5 4 5 5 4 4 4 4 4 4 4 4 4 4 4 4 4 3 3 3 3 3
3 3 3 2 2 3 3 4 5 4 4 4 4 4 4 4 4 4 5 4 5 5 4 4 4 4 4 4 4 4 4 4 4 4 4 4 4 4 4 3 3 3 3 3 3 3 3 3 3
3 3 2 2 1 1 2 4 5 4 4 4 4 4 4 4 4 4 4 4 4 4 4 4 4 3 3 3 3 3 3 3 3 3 3 3 3 3 3 3 3 3 2 2 2 2 2 2 2
Wind_Speed
11 8 2 4 5 4 2 4 3 1 1 1 3 7 8 5 3 4 1 5 8 8 9 11 11 11 12 12 11 11 11 11 11 11 11 11 11 11 11 11 11 11 12 13 13 13 13 13 12
6 3 4 5 5 2 4 5 3 3 3 2 4 6 6 4 2 5 3 4 9 9 9 10 11 11 12 12 11 11 11 10 10 11 11 11 10 10 11 11 11 11 11 12 11 11 11 11 11
4 2 4 4 4 6 5 3 4 2 0 2 4 5 4 3 2 3 3 6 8 8 9 10 12 11 11 12 12 11 10 10 10 10 10 10 10 10 10 10 11 11 11 11 10 10 10 10 10
3 4 5 4 3 5 5 3 2 0 2 3 4 5 3 2 2 3 6 8 9 7 9 11 12 11 11 12 12 11 11 10 10 10 10 10 10 10 10 10 10 10 10 10 10 9 9 9 9
4 4 4 0 3 4 3 4 2 1 1 2 4 5 2 4 3 7 8 8 9 6 8 10 11 11 11 11 12 11 11 10 10 10 9 9 10 10 10 10 10 10 9 9 9 8 8 8 8
4 4 3 3 4 3 4 3 0 1 1 2 4 4 2 2 5 6 7 7 7 7 7 9 10 11 10 10 11 11 11 10 10 10 9 9 9 10 10 9 9 9 8 8 8 7 7 7 7
4 4 4 4 3 3 3 2 1 2 2 1 3 5 2 1 3 6 7 7 7 8 7 6 7 8 9 10 10 10 10 9 9 9 9 9 9 9 9 9 8 8 7 7 7 7 6 6 6
4 4 2 2 3 3 3 3 1 1 1 1 3 6 4 3 4 7 7 7 7 7 6 5 6 7 7 8 9 10 9 9 9 9 9 9 8 8 8 8 7 7 6 6 6 6 6 6 6
4 4 3 4 4 3 3 2 3 2 3 3 3 2 4 7 7 8 7 6 5 5 4 4 5 5 6 7 8 9 8 8 8 8 8 8 7 7 6 6 6 6 5 5 5 5 5 5 6
4 4 5 3 3 2 2 2 2 3 4 3 4 4 6 8 8 8 7 6 5 4 3 3 4 4 5 5 6 6 6 7 7 7 7 6 6 6 5 5 5 4 4 4 4 5 5 5 4
4 6 3 1 1 1 1 2 3 3 1 1 3 5 6 6 6 7 6 6 6 5 4 3 3 4 4 4 5 5 5 6 5 6 6 6 6 5 5 4 4 4 4 4 3 4 4 3 3
3 2 3 2 0 1 1 1 3 1 3 2 3 6 6 6 6 6 6 5 5 4 4 3 3 4 4 5 4 4 4 4 4 5 6 6 4 4 4 3 3 4 3 3 3 3 2 3 2
2 1 1 1 2 1 1 1 1 2 3 1 3 4 5 5 4 4 5 4 4 5 3 3 4 4 4 4 4 4 4 4 4 5 5 5 4 3 3 3 3 3 3 2 2 2 2 2 2
2 1 1 1 1 0 1 1 1 4 1 3 3 2 3 4 4 3 4 4 4 4 4 4 4 5 5 4 4 3 3 4 5 4 4 5 5 4 3 3 2 2 2 2 2 1 1 1 2
1 2 3 2 2 1 2 3 4 5 1 1 1 1 1 2 3 4 5 5 5 4 4 4 4 4 5 5 4 4 4 5 4 4 5 5 5 5 4 2 2 1 1 2 2 2 2 2 2
2 2 2 3 2 2 4 6 5 3 3 2 2 1 2 2 3 4 4 4 4 4 4 4 4 4 4 4 4 4 4 4 4 4 5 5 5 5 4 3 1 1 2 2 1 1 1 1 1
1 2 4 4 3 3 4 6 6 3 4 4 3 3 2 1 1 2 3 4 4 4 5 5 5 5 4 4 4 4 4 4 3 4 4 4 5 5 4 3 2 2 2 2 1 1 1 1 1
4 4 4 5 3 2 4 7 6 4 4 5 4 3 2 2 3 2 2 3 4 4 4 4 5 4 4 4 4 3 3 3 3 3 3 4 4 4 4 3 2 2 2 1 1 1 1 1 0
4 3 4 5 3 2 6 8 8 6 4 5 5 4 4 4 2 0 1 3 4 4 4 4 4 3 4 3 2 2 1 1 2 2 3 3 3 3 3 2 2 2 1 0 0 0 1 1 1
2 3 3 4 2 3 5 9 7 6 6 6 7 7 6 3 1 0 1 2 3 3 3 3 3 3 3 2 2 1 2 1 1 2 3 3 3 2 3 2 1 1 1 1 0 1 1 0 1
3 4 4 3 3 2 2 7 5 5 4 5 5 6 6 6 5 3 2 2 2 3 3 3 3 3 3 3 3 3 2 2 1 1 1 2 3 3 2 2 2 1 1 1 0 0 1 1 0
5 4 3 2 1 4 2 5 7 5 4 6 6 5 6 5 5 4 3 2 2 2 3 3 3 3 3 4 4 4 2 2 1 1 0 1 2 2 2 2 1 1 1 1 1 0 1 1 1
5 2 2 2 2 2 3 4 7 3 5 8 7 6 6 6 6 5 4 4 3 2 3 3 3 2 2 3 4 4 3 2 1 1 1 1 1 2 2 1 1 0 0 1 1 1 1 1 1
2 3 3 3 3 4 6 6 7 5 7 6 6 6 5 5 4 4 3 3 2 2 3 3 3 2 2 2 2 3 3 3 2 1 1 0 1 1 1 1 1 1 0 1 1 1 1 2 1
3 4 2 3 2 6 4 5 9 6 6 6 6 6 5 4 4 4 3 3 3 2 3 3 3 2 2 2 2 2 3 3 3 2 1 1 0 1 1 1 1 1 1 1 0 1 1 2 2
4 6 6 5 5 5 3 7 7 5 3 2 3 3 4 4 4 4 4 4 3 3 2 3 3 3 2 2 1 1 1 1 1 2 1 1 1 2 2 1 1 1 1 0 0 0 1 0 1
5 5 4 4 1 3 6 6 6 2 1 1 1 2 3 4 4 4 4 4 4 3 2 3 3 2 2 1 1 1 1 1 1 1 1 0 1 1 1 0 1 1 0 0 0 0 1 0 1
3 5 4 4 3 5 6 6 5 5 4 3 2 3 3 3 3 4 3 3 3 3 2 2 2 3 2 1 1 1 0 1 1 1 0 0 1 1 0 1 0 1 1 0 0 0 1 1 1
4 3 4 4 4 4 5 7 5 7 6 5 5 5 5 5 4 4 3 2 2 2 2 2 1 2 1 1 1 1 0 1 1 1 0 0 1 1 0 1 0 0 1 1 1 1 1 1 1
4 6 7 5 6 5 4 8 4 4 4 4 4 3 3 4 3 3 3 2 2 2 2 2 1 1 1 1 1 1 0 1 1 1 1 1 1 1 1 1 1 0 0 0 1 1 1 2 2
Wind_Direction
336 341 53 57 58 56 242 257 236 282 335 359 81 97 107 104 124 150 130 134 131 139 149 147 141 134 134 129 125 123 119 116 114 111 108 104 100 98 97 94 90 89 87 85 84 82 81 79 77
339 359 53 62 98 135 264 256 237 234 205 146 77 81 82 73 72 105 101 137 133 136 139 143 138 133 134 131 128 127 126 123 120 116 114 109 105 102 101 98 93 91 89 87 85 84 81 78 74
336 49 80 82 132 183 220 241 219 228 33 96 77 60 97 110 106 129 147 134 123 125 131 139 139 136 134 134 131 129 128 126 124 122 119 115 110 106 105 101 99 95 92 89 86 83 80 76 72
47 49 60 90 191 221 214 234 228 116 29 46 100 74 70 41 158 148 132 124 119 115 125 137 138 137 134 134 132 131 127 124 124 124 122 119 114 109 106 102 100 98 95 91 86 81 77 74 70
58 79 79 118 230 253 260 275 269 105 87 41 102 108 72 349 87 116 126 121 121 114 121 136 138 137 134 130 130 129 126 122 120 119 122 122 117 110 104 102 99 98 96 93 89 83 79 76 71
58 74 110 207 236 265 290 294 315 75 77 50 88 110 126 30 94 113 116 112 114 117 117 128 138 137 133 128 124 128 126 123 120 117 113 113 112 110 107 103 100 97 95 93 89 85 80 76 72
111 111 163 196 224 264 285 327 91 118 84 31 116 112 140 85 110 117 109 103 99 101 106 110 125 131 130 127 122 119 122 121 118 117 116 113 111 109 108 101 98 97 94 91 86 82 77 72 69
126 115 156 200 200 243 304 353 33 97 132 17 93 135 176 196 138 112 99 95 96 89 89 94 106 117 119 121 123 120 117 119 117 114 112 110 110 108 105 101 99 96 96 91 83 77 72 66 59
93 93 189 207 195 229 328 14 348 8 75 36 49 148 172 141 126 112 101 89 91 92 84 88 93 105 118 124 127 122 119 119 117 116 115 113 109 104 103 102 103 100 100 96 88 80 67 60 48
96 160 209 213 187 187 346 23 337 37 34 35 36 45 101 122 129 129 130 133 132 131 124 95 99 105 114 121 121 117 117 120 120 118 118 117 115 107 100 96 94 91 97 94 85 77 65 59 44
143 180 196 230 195 152 25 6 2 98 51 216 172 144 129 128 136 144 148 150 156 154 141 120 109 112 120 114 119 116 117 119 120 121 123 119 112 105 96 93 85 81 83 71 61 60 57 55 49
153 214 190 211 87 104 155 72 28 57 224 235 159 146 145 151 158 164 165 162 153 148 149 136 122 113 121 123 119 123 119 116 117 126 127 122 111 100 101 98 99 93 90 73 62 59 46 41 34
185 227 245 194 79 72 73 84 112 293 274 96 103 117 152 164 167 165 157 153 150 153 155 147 126 123 120 113 115 115 116 120 126 122 124 129 124 118 114 109 104 99 92 84 74 59 41 30 16
190 205 267 240 234 58 97 317 103 252 240 89 103 133 177 174 172 157 146 148 155 159 157 148 130 122 116 112 110 107 111 113 110 106 114 125 124 118 113 100 92 88 96 100 100 86 55 31 30
104 40 344 280 197 195 113 299 235 240 177 118 177 206 196 191 173 177 180 170 168 156 148 140 131 115 118 118 115 108 106 103 97 99 103 108 112 112 112 103 85 77 94 95 82 68 58 39 26
78 79 273 281 191 179 151 253 259 231 164 213 250 241 229 228 202 196 181 168 162 151 141 129 121 111 110 112 107 103 101 96 94 98 99 101 107 112 106 93 83 69 72 83 90 83 78 45 17
80 203 229 268 224 180 181 243 264 238 186 211 233 227 221 257 270 222 179 168 164 156 146 133 121 118 112 101 94 91 94 91 93 95 101 104 103 108 108 102 89 83 69 50 60 74 118 99 355
209 216 224 233 246 185 215 247 266 258 213 216 224 221 215 218 244 234 175 159 150 139 133 132 124 120 110 96 87 80 73 74 76 83 83 95 99 104 104 99 91 87 72 49 43 71 57 86 10
193 196 234 249 262 228 235 252 259 257 236 224 222 220 219 225 238 156 111 123 119 113 118 125 125 123 120 111 111 119 116 77 56 60 75 77 88 103 105 97 88 80 91 111 108 94 83 37 30
202 219 253 286 290 242 250 261 258 242 227 216 212 217 212 210 223 206 110 112 127 134 128 128 132 132 130 135 136 131 135 128 96 55 62 65 69 99 107 104 112 100 98 67 57 89 122 35 60
229 210 222 253 319 321 297 290 259 257 236 233 219 214 210 197 198 199 154 136 128 137 145 146 142 134 131 119 107 89 80 68 54 31 51 36 49 70 83 106 114 111 138 162 205 147 154 203 297
237 238 216 211 182 267 207 270 275 244 251 243 233 222 214 207 196 192 177 160 154 160 141 132 134 130 135 132 132 136 145 171 203 208 125 42 49 58 57 72 111 129 137 152 204 169 198 174 212
211 214 196 201 183 283 248 226 275 246 246 246 236 226 215 206 192 188 185 176 162 149 132 128 123 113 118 133 149 148 143 157 140 109 106 44 32 45 40 33 43 96 160 210 226 217 176 186 199
151 68 44 47 88 258 225 204 266 227 220 233 231 224 209 193 183 177 162 147 137 128 126 126 126 121 114 124 140 152 152 149 138 140 164 100 10 13 15 357 1 348 282 240 237 224 203 208 217
105 101 41 344 305 245 219 211 249 243 224 214 212 212 194 176 170 164 154 151 149 148 150 142 134 131 122 120 130 160 167 166 171 179 190 189 245 289 278 299 312 314 285 251 237 221 217 211 209
185 155 168 205 228 269 253 229 253 267 248 218 206 196 177 176 178 177 180 173 170 164 153 148 148 141 128 125 129 128 147 164 182 181 187 198 222 245 255 245 264 278 294 284 160 214 255 243 219
163 190 170 146 211 265 255 270 294 296 335 289 205 176 183 188 183 182 182 177 171 165 165 157 144 127 119 122 122 108 119 146 169 159 152 213 263 266 291 282 261 281 319 354 134 201 255 255 236
168 150 119 145 190 249 269 253 235 231 248 251 226 213 206 195 186 183 185 184 175 164 157 133 141 150 150 148 160 123 105 115 116 118 142 334 312 325 327 355 332 304 300 318 210 232 260 228 255
161 161 154 162 184 197 255 261 221 212 218 223 236 229 203 191 193 189 186 179 158 135 127 132 138 133 136 146 142 115 66 67 78 85 53 348 338 354 347 334 297 252 281 267 223 239 233 235 259
195 189 163 177 225 207 227 266 273 229 238 230 241 238 205 189 192 184 172 157 154 157 160 163 169 160 171 158 138 137 120 83 81 59 11 11 0 351 343 327 329 311 262 264 240 260 261 244 249
Height
1514 1515 1516 1517 1521 1531 1533 1525 1518 1515 1513 1513 1512 1512 1515 1519 1523 1529 1526 1525 1526 1527 1529 1531 1532 1533 1534 1535 1535 1536 1537 1537 1538 1538 1538 1539 1539 1539 1539 1539 1539 1539 1539 1538 1538 1538 1538 1538 1538
1514 1515 1517 1517 1527 1538 1533 1521 1517 1514 1512 1513 1513 1514 1516 1519 1521 1522 1523 1525 1526 1528 1529 1530 1532 1533 1533 1534 1535 1536 1537 1537 1538 1538 1539 1539 1539 1539 1539 1539 1539 1539 1539 1539 1539 1539 1539 1539 1539
1514 1514 1516 1520 1529 1533 1526 1517 1514 1512 1512 1512 1514 1515 1518 1520 1521 1522 1523 1525 1526 1528 1529 1531 1532 1533 1533 1534 1535 1536 1537 1537 1538 1539 1539 1539 1540 1540 1540 1540 1540 1540 1540 1540 1540 1540 1540 1539 1539
1514 1515 1517 1524 1527 1523 1518 1514 1512 1512 1512 1512 1514 1517 1519 1522 1522 1522 1523 1524 1526 1528 1529 1531 1532 1533 1533 1534 1535 1536 1536 1537 1538 1538 1539 1539 1540 1540 1540 1540 1540 1540 1540 1540 1541 1540 1540 1540 1540
1513 1515 1522 1528 1525 1520 1516 1514 1512 1512 1513 1513 1514 1517 1520 1522 1522 1522 1523 1524 1526 1527 1529 1530 1531 1532 1533 1534 1535 1535 1536 1537 1537 1538 1539 1539 1540 1540 1540 1540 1540 1540 1541 1541 1541 1541 1541 1541 1540
1514 1515 1528 1530 1525 1519 1515 1514 1513 1513 1514 1514 1515 1517 1520 1522 1522 1522 1523 1524 1526 1527 1529 1530 1531 1532 1533 1533 1534 1535 1536 1536 1537 1538 1538 1539 1539 1539 1540 1540 1540 1540 1541 1541 1541 1541 1541 1541 1541
1514 1519 1525 1525 1523 1520 1516 1514 1514 1513 1514 1515 1515 1518 1520 1521 1522 1523 1523 1525 1526 1527 1528 1529 1530 1531 1532 1533 1534 1535 1536 1536 1537 1537 1538 1538 1539 1539 1539 1539 1540 1540 1540 1540 1541 1541 1541 1541 1540
1513 1518 1522 1523 1522 1519 1515 1514 1514 1514 1514 1515 1515 1517 1519 1520 1521 1523 1524 1524 1525 1526 1528 1529 1530 1531 1531 1532 1533 1534 1535 1536 1536 1536 1537 1537 1538 1538 1539 1539 1539 1539 1540 1540 1540 1540 1540 1540 1540
1513 1522 1524 1520 1519 1517 1515 1514 1514 1514 1514 1515 1515 1516 1517 1519 1520 1522 1523 1524 1525 1526 1527 1528 1529 1530 1531 1532 1533 1533 1534 1535 1535 1536 1536 1537 1537 1538 1538 1538 1539 1539 1539 1539 1539 1539 1539 1539 1539
1513 1522 1519 1516 1515 1515 1515 1515 1515 1514 1514 1515 1515 1516 1517 1518 1519 1520 1521 1522 1523 1524 1526 1527 1528 1529 1530 1530 1531 1532 1533 1534 1534 1535 1535 1536 1536 1537 1537 1538 1538 1538 1538 1538 1538 1538 1538 1539 1538
1512 1517 1515 1514 1513 1514 1515 1515 1515 1515 1516 1515 1515 1515 1517 1518 1519 1519 1520 1521 1522 1523 1524 1525 1526 1527 1529 1529 1530 1531 1532 1533 1533 1534 1534 1535 1535 1536 1536 1536 1537 1537 1537 1537 1537 1537 1537 1537 1537
1513 1513 1513 1513 1513 1513 1514 1515 1515 1515 1516 1515 1515 1515 1516 1517 1518 1519 1519 1520 1521 1522 1523 1524 1525 1526 1527 1528 1529 1530 1530 1531 1532 1532 1533 1534 1534 1534 1534 1535 1535 1535 1535 1536 1536 1536 1536 1536 1536
1512 1513 1513 1513 1513 1513 1514 1514 1515 1515 1515 1514 1514 1515 1516 1516 1517 1518 1519 1520 1521 1521 1522 1523 1524 1525 1526 1527 1528 1528 1529 1530 1531 1531 1531 1532 1532 1532 1533 1533 1534 1534 1534 1534 1534 1534 1534 1534 1534
1512 1512 1512 1512 1512 1513 1514 1514 1515 1514 1514 1513 1513 1514 1515 1515 1516 1517 1517 1518 1519 1520 1521 1522 1522 1523 1525 1525 1526 1527 1528 1528 1529 1529 1530 1530 1531 1531 1531 1532 1532 1532 1532 1533 1533 1533 1533 1533 1532
1511 1513 1513 1512 1512 1513 1514 1515 1514 1512 1513 1512 1513 1513 1513 1514 1514 1515 1515 1516 1517 1518 1519 1520 1521 1522 1523 1524 1525 1525 1526 1527 1527 1528 1528 1529 1529 1530 1530 1530 1530 1530 1530 1531 1531 1531 1531 1531 1530
1512 1516 1518 1513 1512 1512 1517 1517 1512 1511 1511 1511 1511 1511 1512 1512 1513 1513 1514 1515 1516 1516 1517 1518 1520 1521 1521 1522 1523 1524 1524 1525 1525 1526 1526 1527 1527 1528 1528 1528 1528 1528 1528 1528 1528 1528 1528 1528 1528
1517 1521 1518 1515 1511 1512 1515 1515 1510 1510 1509 1509 1510 1510 1510 1510 1511 1511 1512 1513 1514 1515 1516 1517 1518 1519 1520 1520 1521 1522 1523 1523 1523 1524 1524 1525 1525 1525 1526 1526 1526 1526 1526 1526 1526 1526 1526 1525 1525
1519 1518 1517 1516 1512 1512 1514 1512 1509 1508 1508 1508 1508 1507 1507 1508 1508 1509 1510 1511 1512 1513 1514 1515 1516 1517 1518 1519 1519 1520 1521 1521 1522 1522 1522 1523 1523 1523 1523 1523 1523 1523 1523 1523 1523 1523 1523 1523 1523
1513 1515 1515 1514 1511 1513 1512 1510 1508 1506 1506 1506 1505 1505 1505 1505 1506 1507 1507 1508 1509 1511 1512 1513 1514 1515 1515 1516 1517 1518 1518 1519 1519 1520 1520 1520 1521 1521 1521 1521 1521 1521 1521 1521 1521 1521 1520 1520 1520
1512 1515 1516 1513 1511 1512 1512 1509 1505 1504 1502 1502 1502 1502 1502 1503 1503 1504 1504 1505 1507 1508 1509 1510 1511 1512 1513 1514 1515 1516 1516 1516 1517 1517 1518 1518 1518 1518 1518 1518 1518 1518 1518 1518 1518 1518 1517 1517 1517
1513 1515 1515 1514 1512 1511 1512 1509 1504 1501 1500 1499 1499 1499 1499 1500 1500 1501 1502 1503 1504 1505 1507 1508 1509 1510 1510 1511 1512 1513 1513 1513 1514 1514 1514 1515 1515 1515 1516 1516 1515 1515 1515 1515 1515 1515 1515 1514 1515
1514 1511 1512 1513 1517 1519 1516 1518 1504 1500 1498 1497 1496 1496 1496 1497 1497 1498 1499 1500 1501 1503 1504 1505 1506 1507 1508 1509 1509 1509 1509 1510 1510 1511 1511 1511 1512 1512 1512 1513 1513 1513 1512 1512 1512 1512 1512 1512 1512
1510 1509 1511 1513 1517 1521 1518 1521 1506 1499 1498 1494 1493 1492 1493 1494 1495 1496 1497 1498 1499 1501 1501 1503 1504 1504 1505 1506 1506 1507 1507 1507 1508 1508 1508 1508 1508 1509 1509 1509 1510 1509 1509 1509 1509 1509 1509 1509 1509
1508 1512 1514 1519 1522 1525 1517 1518 1506 1499 1492 1490 1489 1489 1490 1491 1492 1493 1495 1496 1497 1498 1499 1500 1500 1501 1502 1503 1503 1504 1504 1504 1504 1505 1505 1505 1505 1506 1506 1506 1506 1506 1506 1506 1506 1506 1505 1505 1506
1510 1518 1529 1529 1533 1524 1513 1512 1501 1489 1486 1485 1486 1486 1487 1488 1490 1491 1492 1493 1494 1495 1496 1497 1497 1498 1499 1499 1500 1501 1501 1501 1501 1502 1502 1502 1502 1503 1503 1503 1503 1503 1503 1502 1502 1502 1502 1502 1502
1510 1514 1525 1527 1526 1519 1512 1508 1495 1486 1484 1483 1484 1484 1485 1487 1488 1489 1490 1491 1492 1492 1493 1494 1494 1495 1496 1496 1497 1498 1498 1498 1498 1499 1499 1499 1499 1499 1500 1500 1500 1500 1500 1499 1499 1499 1499 1499 1499
1509 1513 1513 1522 1524 1522 1512 1503 1492 1484 1483 1483 1483 1483 1483 1484 1486 1487 1488 1489 1490 1490 1491 1491 1492 1492 1493 1494 1494 1495 1495 1495 1495 1496 1496 1496 1496 1496 1496 1496 1496 1496 1496 1496 1496 1496 1495 1495 1495
1506 1508 1517 1521 1523 1517 1508 1501 1493 1486 1484 1483 1482 1481 1482 1483 1484 1485 1486 1487 1488 1489 1489 1490 1490 1491 1491 1491 1491 1491 1492 1492 1492 1493 1493 1493 1493 1493 1493 1492 1492 1492 1492 1492 1492 1492 1492 1492 1491
1507 1509 1512 1517 1519 1518 1512 1497 1482 1481 1480 1480 1480 1480 1480 1482 1483 1484 1484 1485 1486 1487 1487 1488 1488 1488 1488 1488 1488 1489 1489 1489 1489 1490 1490 1490 1490 1490 1489 1489 1489 1489 1489 1489 1488 1488 1488 1488 1488
1503 1504 1509 1516 1519 1518 1515 1497 1478 1477 1476 1477 1478 1478 1479 1481 1482 1483 1483 1484 1485 1485 1485 1486 1486 1486 1486 1486 1486 1486 1486 1486 1486 1487 1487 1487 1487 1487 1486 1486 1485 1485 1485 1485 1485 1485 1484 1484 1484